Time,TemperatureF,DewpointF,PressureIn,WindDirection,WindDirectionDegrees,WindSpeedMPH,WindSpeedGustMPH,Humidity,HourlyPrecipIn,Conditions,Clouds,dailyrainin,SoftwareType,DateUTC
2013-02-10 00:00:00,12.9,10.0,30.12,NNW,343,0.0,8.0,88,0.00,,---,0.00,VWS V14.00,2013-02-10 05:00:00,
2013-02-10 00:05:00,12.9,10.0,30.13,NW,322,0.0,7.0,88,0.00,,---,0.00,VWS V14.00,2013-02-10 05:05:00,
2013-02-10 00:10:00,12.9,10.0,30.13,NNW,333,0.0,7.0,88,0.00,,---,0.00,VWS V14.00,2013-02-10 05:10:00,
2013-02-10 00:15:00,12.9,10.0,30.13,NNE,18,0.0,7.0,88,0.00,,---,0.00,VWS V14.00,2013-02-10 05:15:00,
2013-02-10 00:20:00,12.9,10.0,30.13,NNW,342,0.0,7.0,88,0.00,,---,0.00,VWS V14.00,2013-02-10 05:20:00,
2013-02-10 00:25:00,12.9,10.0,30.13,NNW,336,1.0,7.0,88,0.00,,---,0.00,VWS V14.00,2013-02-10 05:25:00,
2013-02-10 00:30:00,12.9,10.0,30.13,NNW,346,0.0,7.0,88,0.00,,---,0.00,VWS V14.00,2013-02-10 05:30:00,
2013-02-10 00:35:00,12.8,9.9,30.14,NNW,340,0.0,6.0,88,0.00,,---,0.00,VWS V14.00,2013-02-10 05:35:00,
2013-02-10 00:40:00,12.8,9.9,30.14,NW,308,0.0,6.0,88,0.00,,---,0.00,VWS V14.00,2013-02-10 05:40:00,
2013-02-10 00:45:00,12.6,9.7,30.14,NW,322,0.0,6.0,88,0.00,,---,0.00,VWS V14.00,2013-02-10 05:45:00,
2013-02-10 00:50:00,12.6,9.7,30.15,NNW,333,0.0,6.0,88,0.00,,---,0.00,VWS V14.00,2013-02-10 05:50:00,
2013-02-10 00:55:00,12.6,9.7,30.15,NNW,329,0.0,6.0,88,0.00,,---,0.00,VWS V14.00,2013-02-10 05:55:00,
2013-02-10 01:00:00,12.6,9.7,30.15,NW,325,0.0,7.0,88,0.00,,---,0.00,VWS V14.00,2013-02-10 06:00:00,
2013-02-10 01:05:00,12.6,9.7,30.15,NNW,335,1.0,2.0,88,0.00,,---,0.00,VWS V14.00,2013-02-10 06:05:00,
2013-02-10 01:10:00,12.8,9.9,30.15,NNW,342,0.0,6.0,88,0.00,,---,0.00,VWS V14.00,2013-02-10 06:10:00,
2013-02-10 01:15:00,12.8,9.9,30.15,NW,325,0.0,6.0,88,0.00,,---,0.00,VWS V14.00,2013-02-10 06:15:00,
2013-02-10 01:20:00,12.8,9.9,30.15,NNW,346,0.0,6.0,88,0.00,,---,0.00,VWS V14.00,2013-02-10 06:20:00,
2013-02-10 01:25:00,12.8,9.9,30.15,NNW,337,0.0,7.0,88,0.00,,---,0.00,VWS V14.00,2013-02-10 06:25:00,
2013-02-10 01:31:00,12.9,10.0,30.15,NNW,329,1.0,7.0,88,0.00,,---,0.00,VWS V14.00,2013-02-10 06:31:00,
2013-02-10 01:36:00,12.9,9.8,30.15,NNW,333,1.0,4.0,87,0.00,,---,0.00,VWS V14.00,2013-02-10 06:36:00,
2013-02-10 01:41:00,12.9,10.0,30.15,NNW,335,0.0,4.0,88,0.00,,---,0.00,VWS V14.00,2013-02-10 06:41:00,
2013-02-10 01:46:00,12.9,9.8,30.16,North,357,0.0,4.0,87,0.00,,---,0.00,VWS V14.00,2013-02-10 06:46:00,
2013-02-10 01:51:00,12.9,9.8,30.16,NW,316,0.0,4.0,87,0.00,,---,0.00,VWS V14.00,2013-02-10 06:51:00,
2013-02-10 01:56:00,12.8,9.7,30.16,NNW,336,1.0,4.0,87,0.00,,---,0.00,VWS V14.00,2013-02-10 06:56:00,
2013-02-10 02:01:00,12.8,9.7,30.16,NNW,336,1.0,4.0,87,0.00,,---,0.00,VWS V14.00,2013-02-10 07:01:00,
2013-02-10 02:06:00,12.8,9.7,30.16,NNW,333,0.0,3.0,87,0.00,,---,0.00,VWS V14.00,2013-02-10 07:06:00,
2013-02-10 02:11:00,12.6,9.5,30.16,NW,323,0.0,3.0,87,0.00,,---,0.00,VWS V14.00,2013-02-10 07:11:00,
2013-02-10 02:16:00,12.6,9.5,30.16,NNW,340,1.0,3.0,87,0.00,,---,0.00,VWS V14.00,2013-02-10 07:16:00,
2013-02-10 02:21:00,12.6,9.5,30.16,NW,304,0.0,3.0,87,0.00,,---,0.00,VWS V14.00,2013-02-10 07:21:00,
2013-02-10 02:26:00,12.6,9.5,30.16,NW,312,0.0,3.0,87,0.00,,---,0.00,VWS V14.00,2013-02-10 07:26:00,
2013-02-10 02:31:00,12.6,9.5,30.17,North,354,0.0,5.0,87,0.00,,---,0.00,VWS V14.00,2013-02-10 07:31:00,
2013-02-10 02:36:00,12.6,9.5,30.17,NNW,337,0.0,2.0,87,0.00,,---,0.00,VWS V14.00,2013-02-10 07:36:00,
2013-02-10 02:41:00,12.6,9.5,30.17,NNW,337,0.0,2.0,87,0.00,,---,0.00,VWS V14.00,2013-02-10 07:41:00,
2013-02-10 02:46:00,12.6,9.5,30.17,NNW,336,0.0,2.0,87,0.00,,---,0.00,VWS V14.00,2013-02-10 07:46:00,
2013-02-10 02:51:00,12.6,9.5,30.17,NNW,336,0.0,2.0,87,0.00,,---,0.00,VWS V14.00,2013-02-10 07:51:00,
2013-02-10 02:56:00,12.4,9.3,30.17,NNW,336,0.0,3.0,87,0.00,,---,0.00,VWS V14.00,2013-02-10 07:56:00,
2013-02-10 03:01:00,12.6,9.5,30.17,NNW,339,1.0,3.0,87,0.00,,---,0.00,VWS V14.00,2013-02-10 08:01:00,
2013-02-10 03:06:00,12.6,9.5,30.17,North,359,0.0,1.0,87,0.00,,---,0.00,VWS V14.00,2013-02-10 08:06:00,
2013-02-10 03:11:00,12.6,9.5,30.17,NW,322,0.0,3.0,87,0.00,,---,0.00,VWS V14.00,2013-02-10 08:11:00,
2013-02-10 03:17:00,12.6,9.5,30.18,NW,325,0.0,3.0,87,0.00,,---,0.00,VWS V14.00,2013-02-10 08:17:00,
2013-02-10 03:22:00,12.6,9.5,30.18,NNW,346,0.0,3.0,87,0.00,,---,0.00,VWS V14.00,2013-02-10 08:22:00,
2013-02-10 03:27:00,12.4,9.3,30.18,NNW,343,0.0,3.0,87,0.00,,---,0.00,VWS V14.00,2013-02-10 08:27:00,
2013-02-10 03:32:00,12.4,9.3,30.18,NNW,343,0.0,0.0,87,0.00,,---,0.00,VWS V14.00,2013-02-10 08:32:00,
2013-02-10 03:37:00,12.3,8.9,30.18,NNW,343,0.0,1.0,86,0.00,,---,0.00,VWS V14.00,2013-02-10 08:37:00,
2013-02-10 03:42:00,12.3,9.2,30.18,NNW,343,0.0,1.0,87,0.00,,---,0.00,VWS V14.00,2013-02-10 08:42:00,
2013-02-10 03:47:00,12.1,9.0,30.19,NNW,340,0.0,1.0,87,0.00,,---,0.00,VWS V14.00,2013-02-10 08:47:00,
2013-02-10 03:52:00,12.1,9.0,30.19,NNW,340,0.0,1.0,87,0.00,,---,0.00,VWS V14.00,2013-02-10 08:52:00,
2013-02-10 03:57:00,11.9,8.8,30.19,NW,305,0.0,3.0,87,0.00,,---,0.00,VWS V14.00,2013-02-10 08:57:00,
2013-02-10 04:02:00,11.9,8.5,30.19,NNW,332,0.0,0.0,86,0.00,,---,0.00,VWS V14.00,2013-02-10 09:02:00,
2013-02-10 04:07:00,11.7,8.3,30.19,NNW,332,0.0,0.0,86,0.00,,---,0.00,VWS V14.00,2013-02-10 09:07:00,
2013-02-10 04:12:00,11.6,8.2,30.19,NNW,337,1.0,1.0,86,0.00,,---,0.00,VWS V14.00,2013-02-10 09:12:00,
2013-02-10 04:17:00,11.4,8.0,30.20,NNW,337,0.0,1.0,86,0.00,,---,0.00,VWS V14.00,2013-02-10 09:17:00,
2013-02-10 04:22:00,11.4,8.0,30.20,NNW,337,0.0,1.0,86,0.00,,---,0.00,VWS V14.00,2013-02-10 09:22:00,
2013-02-10 04:27:00,11.4,8.0,30.20,NNW,337,0.0,1.0,86,0.00,,---,0.00,VWS V14.00,2013-02-10 09:27:00,
2013-02-10 04:32:00,11.6,8.2,30.20,NNW,337,0.0,1.0,86,0.00,,---,0.00,VWS V14.00,2013-02-10 09:32:00,
2013-02-10 04:37:00,11.6,8.2,30.20,NNW,337,0.0,1.0,86,0.00,,---,0.00,VWS V14.00,2013-02-10 09:37:00,
2013-02-10 04:42:00,11.7,8.3,30.20,NNW,337,0.0,1.0,86,0.00,,---,0.00,VWS V14.00,2013-02-10 09:42:00,
2013-02-10 04:47:00,11.6,8.2,30.21,North,0,1.0,5.0,86,0.00,,---,0.00,VWS V14.00,2013-02-10 09:47:00,
2013-02-10 04:52:00,11.6,8.2,30.21,North,0,0.0,5.0,86,0.00,,---,0.00,VWS V14.00,2013-02-10 09:52:00,
2013-02-10 04:57:00,11.4,8.0,30.21,North,0,0.0,5.0,86,0.00,,---,0.00,VWS V14.00,2013-02-10 09:57:00,
2013-02-10 05:02:00,11.4,8.0,30.22,North,0,0.0,0.0,86,0.00,,---,0.00,VWS V14.00,2013-02-10 10:02:00,
2013-02-10 05:08:00,11.1,7.7,30.22,North,0,0.0,0.0,86,0.00,,---,0.00,VWS V14.00,2013-02-10 10:08:00,
2013-02-10 05:13:00,10.9,7.5,30.22,North,0,0.0,0.0,86,0.00,,---,0.00,VWS V14.00,2013-02-10 10:13:00,
2013-02-10 05:18:00,10.5,7.2,30.23,North,0,0.0,0.0,86,0.00,,---,0.00,VWS V14.00,2013-02-10 10:18:00,
2013-02-10 05:23:00,10.2,6.8,30.23,North,0,0.0,0.0,86,0.00,,---,0.00,VWS V14.00,2013-02-10 10:23:00,
2013-02-10 05:28:00,9.9,6.6,30.23,North,0,0.0,0.0,86,0.00,,---,0.00,VWS V14.00,2013-02-10 10:28:00,
2013-02-10 05:33:00,9.9,6.6,30.24,North,0,0.0,0.0,86,0.00,,---,0.00,VWS V14.00,2013-02-10 10:33:00,
2013-02-10 05:38:00,9.7,6.4,30.24,North,0,0.0,0.0,86,0.00,,---,0.00,VWS V14.00,2013-02-10 10:38:00,
2013-02-10 05:43:00,9.7,6.4,30.24,North,0,0.0,0.0,86,0.00,,---,0.00,VWS V14.00,2013-02-10 10:43:00,
2013-02-10 05:48:00,9.5,6.2,30.24,North,0,0.0,0.0,86,0.00,,---,0.00,VWS V14.00,2013-02-10 10:48:00,
2013-02-10 05:53:00,9.7,6.6,30.24,North,0,0.0,0.0,87,0.00,,---,0.00,VWS V14.00,2013-02-10 10:53:00,
2013-02-10 05:58:00,9.7,6.6,30.24,North,0,0.0,0.0,87,0.00,,---,0.00,VWS V14.00,2013-02-10 10:58:00,
2013-02-10 06:03:00,9.5,6.2,30.25,North,0,0.0,0.0,86,0.00,,---,0.00,VWS V14.00,2013-02-10 11:03:00,
2013-02-10 06:08:00,9.3,6.0,30.25,North,0,0.0,0.0,86,0.00,,---,0.00,VWS V14.00,2013-02-10 11:08:00,
2013-02-10 06:13:00,9.3,6.2,30.25,North,0,0.0,0.0,87,0.00,,---,0.00,VWS V14.00,2013-02-10 11:13:00,
2013-02-10 06:18:00,9.2,5.9,30.25,North,0,0.0,0.0,86,0.00,,---,0.00,VWS V14.00,2013-02-10 11:18:00,
2013-02-10 06:23:00,8.8,5.5,30.25,North,0,0.0,0.0,86,0.00,,---,0.00,VWS V14.00,2013-02-10 11:23:00,
2013-02-10 06:28:00,8.6,5.3,30.25,North,0,0.0,0.0,86,0.00,,---,0.00,VWS V14.00,2013-02-10 11:28:00,
2013-02-10 06:33:00,8.6,5.3,30.26,North,0,0.0,0.0,86,0.00,,---,0.00,VWS V14.00,2013-02-10 11:33:00,
2013-02-10 06:38:00,8.6,5.3,30.26,North,0,0.0,0.0,86,0.00,,---,0.00,VWS V14.00,2013-02-10 11:38:00,
2013-02-10 06:43:00,8.6,5.3,30.26,North,0,0.0,0.0,86,0.00,,---,0.00,VWS V14.00,2013-02-10 11:43:00,
2013-02-10 06:48:00,8.6,5.3,30.27,North,0,0.0,0.0,86,0.00,,---,0.00,VWS V14.00,2013-02-10 11:48:00,
2013-02-10 06:54:00,8.6,5.3,30.27,North,0,0.0,0.0,86,0.00,,---,0.00,VWS V14.00,2013-02-10 11:54:00,
2013-02-10 06:58:00,8.4,5.1,30.27,North,0,0.0,0.0,86,0.00,,---,0.00,VWS V14.00,2013-02-10 11:58:00,
2013-02-10 07:04:00,8.4,5.1,30.28,North,0,0.0,0.0,86,0.00,,---,0.00,VWS V14.00,2013-02-10 12:04:00,
2013-02-10 07:09:00,8.4,5.1,30.28,North,0,0.0,0.0,86,0.00,,---,0.00,VWS V14.00,2013-02-10 12:09:00,
2013-02-10 07:14:00,8.3,5.0,30.28,North,0,0.0,0.0,86,0.00,,---,0.00,VWS V14.00,2013-02-10 12:14:00,
2013-02-10 07:19:00,8.1,4.8,30.29,North,0,0.0,0.0,86,0.00,,---,0.00,VWS V14.00,2013-02-10 12:19:00,
2013-02-10 07:24:00,8.1,4.8,30.29,North,0,0.0,0.0,86,0.00,,---,0.00,VWS V14.00,2013-02-10 12:24:00,
2013-02-10 07:29:00,8.1,4.8,30.29,North,0,0.0,0.0,86,0.00,,---,0.00,VWS V14.00,2013-02-10 12:29:00,
2013-02-10 07:34:00,7.9,4.6,30.29,North,0,0.0,0.0,86,0.00,,---,0.00,VWS V14.00,2013-02-10 12:34:00,
2013-02-10 07:39:00,7.9,4.6,30.29,North,0,0.0,0.0,86,0.00,,---,0.00,VWS V14.00,2013-02-10 12:39:00,
2013-02-10 07:44:00,7.7,4.4,30.29,North,0,0.0,0.0,86,0.00,,---,0.00,VWS V14.00,2013-02-10 12:44:00,
2013-02-10 07:49:00,7.9,4.6,30.30,North,0,0.0,0.0,86,0.00,,---,0.00,VWS V14.00,2013-02-10 12:49:00,
2013-02-10 07:54:00,8.4,5.3,30.30,North,0,0.0,0.0,87,0.00,,---,0.00,VWS V14.00,2013-02-10 12:54:00,
2013-02-10 07:59:00,9.0,5.9,30.30,North,0,0.0,0.0,87,0.00,,---,0.00,VWS V14.00,2013-02-10 12:59:00,
2013-02-10 08:04:00,9.3,6.2,30.31,North,0,0.0,0.0,87,0.00,,---,0.00,VWS V14.00,2013-02-10 13:04:00,
2013-02-10 08:09:00,9.9,6.8,30.31,North,1,0.0,1.0,87,0.00,,---,0.00,VWS V14.00,2013-02-10 13:09:00,
2013-02-10 08:14:00,10.4,7.3,30.31,North,0,0.0,1.0,87,0.00,,---,0.00,VWS V14.00,2013-02-10 13:14:00,
2013-02-10 08:19:00,10.7,7.6,30.32,North,0,0.0,1.0,87,0.00,,---,0.00,VWS V14.00,2013-02-10 13:19:00,
2013-02-10 08:24:00,11.1,8.0,30.32,North,0,0.0,1.0,87,0.00,,---,0.00,VWS V14.00,2013-02-10 13:24:00,
2013-02-10 08:29:00,11.6,8.5,30.32,NNE,18,0.0,1.0,87,0.00,,---,0.00,VWS V14.00,2013-02-10 13:29:00,
2013-02-10 08:34:00,12.1,9.0,30.32,NNE,23,0.0,1.0,87,0.00,,---,0.00,VWS V14.00,2013-02-10 13:34:00,
2013-02-10 08:39:00,12.6,9.5,30.32,NNE,23,0.0,1.0,87,0.00,,---,0.00,VWS V14.00,2013-02-10 13:39:00,
2013-02-10 08:44:00,13.1,10.0,30.32,West,281,0.0,1.0,87,0.00,,---,0.00,VWS V14.00,2013-02-10 13:44:00,
2013-02-10 08:49:00,13.6,10.5,30.32,West,281,0.0,1.0,87,0.00,,---,0.00,VWS V14.00,2013-02-10 13:49:00,
2013-02-10 08:54:00,14.0,10.9,30.32,North,352,0.0,5.0,87,0.00,,---,0.00,VWS V14.00,2013-02-10 13:54:00,
2013-02-10 08:59:00,14.6,11.4,30.32,NNW,346,0.0,5.0,87,0.00,,---,0.00,VWS V14.00,2013-02-10 13:59:00,
2013-02-10 09:04:00,15.1,11.9,30.32,NNW,347,0.0,1.0,87,0.00,,---,0.00,VWS V14.00,2013-02-10 14:04:00,
2013-02-10 09:09:00,15.6,12.4,30.32,NW,316,0.0,1.0,87,0.00,,---,0.00,VWS V14.00,2013-02-10 14:09:00,
2013-02-10 09:14:00,16.1,12.9,30.32,NW,316,0.0,1.0,87,0.00,,---,0.00,VWS V14.00,2013-02-10 14:14:00,
2013-02-10 09:19:00,16.4,13.2,30.33,NNW,328,0.0,1.0,87,0.00,,---,0.00,VWS V14.00,2013-02-10 14:19:00,
2013-02-10 09:24:00,16.7,13.5,30.33,NNW,329,0.0,1.0,87,0.00,,---,0.00,VWS V14.00,2013-02-10 14:24:00,
2013-02-10 09:29:00,17.0,13.8,30.33,North,6,0.0,1.0,87,0.00,,---,0.00,VWS V14.00,2013-02-10 14:29:00,
2013-02-10 09:34:00,17.5,14.3,30.33,North,359,0.0,1.0,87,0.00,,---,0.00,VWS V14.00,2013-02-10 14:34:00,
2013-02-10 09:39:00,18.0,15.1,30.33,North,359,0.0,1.0,88,0.00,,---,0.00,VWS V14.00,2013-02-10 14:39:00,
2013-02-10 09:44:00,18.4,15.2,30.33,NW,320,0.0,2.0,87,0.00,,---,0.00,VWS V14.00,2013-02-10 14:44:00,
2013-02-10 09:49:00,18.9,15.4,30.33,NW,322,0.0,2.0,86,0.00,,---,0.00,VWS V14.00,2013-02-10 14:49:00,
2013-02-10 09:54:00,19.4,16.2,30.33,NW,322,0.0,2.0,87,0.00,,---,0.00,VWS V14.00,2013-02-10 14:54:00,
2013-02-10 09:59:00,19.9,16.9,30.33,NW,322,0.0,2.0,88,0.00,,---,0.00,VWS V14.00,2013-02-10 14:59:00,
2013-02-10 10:04:00,20.3,16.8,30.33,WNW,287,0.0,3.0,86,0.00,,---,0.00,VWS V14.00,2013-02-10 15:04:00,
2013-02-10 10:09:00,20.8,17.5,30.33,WNW,296,0.0,3.0,87,0.00,,---,0.00,VWS V14.00,2013-02-10 15:09:00,
2013-02-10 10:14:00,21.3,17.8,30.33,WNW,292,1.0,3.0,86,0.00,,---,0.00,VWS V14.00,2013-02-10 15:14:00,
2013-02-10 10:19:00,21.8,18.8,30.33,WNW,292,0.0,3.0,88,0.00,,---,0.00,VWS V14.00,2013-02-10 15:19:00,
2013-02-10 10:24:00,22.2,18.9,30.33,North,0,0.0,3.0,87,0.00,,---,0.00,VWS V14.00,2013-02-10 15:24:00,
2013-02-10 10:29:00,22.4,18.9,30.33,NNW,346,1.0,3.0,86,0.00,,---,0.00,VWS V14.00,2013-02-10 15:29:00,
2013-02-10 10:34:00,22.9,19.4,30.33,NNW,344,0.0,1.0,86,0.00,,---,0.00,VWS V14.00,2013-02-10 15:34:00,
2013-02-10 10:39:00,23.2,19.4,30.33,NW,325,0.0,2.0,85,0.00,,---,0.00,VWS V14.00,2013-02-10 15:39:00,
2013-02-10 10:44:00,23.3,19.2,30.33,NW,304,0.0,2.0,84,0.00,,---,0.00,VWS V14.00,2013-02-10 15:44:00,
2013-02-10 10:49:00,23.6,19.8,30.33,NNW,336,0.0,2.0,85,0.00,,---,0.00,VWS V14.00,2013-02-10 15:49:00,
2013-02-10 10:54:00,24.1,20.8,30.33,WSW,237,0.0,2.0,87,0.00,,---,0.00,VWS V14.00,2013-02-10 15:54:00,
2013-02-10 10:59:00,24.5,21.2,30.33,SW,227,0.0,2.0,87,0.00,,---,0.00,VWS V14.00,2013-02-10 15:59:00,
2013-02-10 11:04:00,24.8,20.4,30.33,NW,304,0.0,3.0,83,0.00,,---,0.00,VWS V14.00,2013-02-10 16:04:00,
2013-02-10 11:10:00,25.1,21.5,30.33,NW,316,0.0,3.0,86,0.01,,---,0.01,VWS V14.00,2013-02-10 16:10:00,
2013-02-10 11:15:00,25.6,22.0,30.33,NNW,346,0.0,3.0,86,0.01,,---,0.01,VWS V14.00,2013-02-10 16:15:00,
2013-02-10 11:20:00,25.8,21.4,30.33,West,280,0.0,3.0,83,0.01,,---,0.01,VWS V14.00,2013-02-10 16:20:00,
2013-02-10 11:25:00,26.3,22.4,30.33,NNW,343,0.0,3.0,85,0.01,,---,0.01,VWS V14.00,2013-02-10 16:25:00,
2013-02-10 11:30:00,26.6,23.0,30.33,WNW,284,0.0,3.0,86,0.02,,---,0.02,VWS V14.00,2013-02-10 16:30:00,
2013-02-10 11:35:00,26.7,22.2,30.32,NW,316,0.0,2.0,83,0.03,,---,0.03,VWS V14.00,2013-02-10 16:35:00,
2013-02-10 11:40:00,26.9,22.4,30.32,North,353,0.0,2.0,83,0.03,,---,0.03,VWS V14.00,2013-02-10 16:40:00,
2013-02-10 11:45:00,27.3,23.1,30.32,North,359,0.0,3.0,84,0.04,,---,0.04,VWS V14.00,2013-02-10 16:45:00,
2013-02-10 11:50:00,27.6,23.1,30.33,North,356,0.0,4.0,83,0.04,,---,0.04,VWS V14.00,2013-02-10 16:50:00,
2013-02-10 11:55:00,27.9,23.7,30.33,SSW,196,0.0,4.0,84,0.05,,---,0.05,VWS V14.00,2013-02-10 16:55:00,
2013-02-10 12:00:00,28.4,24.5,30.33,South,188,0.0,4.0,85,0.05,,---,0.05,VWS V14.00,2013-02-10 17:00:00,
2013-02-10 12:05:00,28.7,24.5,30.32,NNW,335,1.0,2.0,84,0.06,,---,0.06,VWS V14.00,2013-02-10 17:05:00,
2013-02-10 12:10:00,29.0,24.5,30.32,NW,325,0.0,5.0,83,0.07,,---,0.07,VWS V14.00,2013-02-10 17:10:00,
2013-02-10 12:15:00,29.3,24.8,30.32,NW,318,0.0,5.0,83,0.07,,---,0.07,VWS V14.00,2013-02-10 17:15:00,
2013-02-10 12:20:00,29.4,24.6,30.32,North,354,0.0,5.0,82,0.08,,---,0.08,VWS V14.00,2013-02-10 17:20:00,
2013-02-10 12:25:00,29.5,24.4,30.32,North,11,0.0,5.0,81,0.09,,---,0.09,VWS V14.00,2013-02-10 17:25:00,
2013-02-10 12:30:00,29.8,24.4,30.32,North,0,0.0,5.0,80,0.10,,---,0.10,VWS V14.00,2013-02-10 17:30:00,
2013-02-10 12:35:00,30.0,25.5,30.31,West,265,0.0,2.0,83,0.07,,---,0.10,VWS V14.00,2013-02-10 17:35:00,
2013-02-10 12:40:00,30.3,25.8,30.31,West,281,2.0,2.0,83,0.08,,---,0.11,VWS V14.00,2013-02-10 17:40:00,
2013-02-10 12:45:00,30.6,26.1,30.31,WNW,295,0.0,3.0,83,0.09,,---,0.12,VWS V14.00,2013-02-10 17:45:00,
2013-02-10 12:50:00,30.9,26.1,30.31,WNW,298,0.0,3.0,82,0.10,,---,0.13,VWS V14.00,2013-02-10 17:50:00,
2013-02-10 12:55:00,31.0,25.6,30.31,North,354,0.0,3.0,80,0.10,,---,0.13,VWS V14.00,2013-02-10 17:55:00,
2013-02-10 13:00:00,31.0,25.3,30.31,WNW,299,0.0,3.0,79,0.11,,---,0.14,VWS V14.00,2013-02-10 18:00:00,
2013-02-10 13:05:00,31.2,26.6,30.30,WNW,301,0.0,0.0,83,0.10,,---,0.15,VWS V14.00,2013-02-10 18:05:00,
2013-02-10 13:10:00,31.3,25.6,30.30,NW,305,1.0,1.0,79,0.10,,---,0.15,VWS V14.00,2013-02-10 18:10:00,
2013-02-10 13:15:00,31.6,26.1,30.30,North,359,2.0,3.0,80,0.11,,---,0.16,VWS V14.00,2013-02-10 18:15:00,
2013-02-10 13:20:00,31.5,25.1,30.29,WNW,285,0.0,3.0,77,0.11,,---,0.16,VWS V14.00,2013-02-10 18:20:00,
2013-02-10 13:25:00,31.6,25.5,30.29,WSW,243,1.0,3.0,78,0.12,,---,0.17,VWS V14.00,2013-02-10 18:25:00,
2013-02-10 13:30:00,31.6,26.1,30.29,WSW,243,3.0,3.0,80,0.12,,---,0.17,VWS V14.00,2013-02-10 18:30:00,
2013-02-10 13:35:00,31.8,26.0,30.28,West,271,0.0,3.0,79,0.07,,---,0.17,VWS V14.00,2013-02-10 18:35:00,
2013-02-10 13:40:00,31.9,25.2,30.28,ENE,73,0.0,3.0,76,0.08,,---,0.18,VWS V14.00,2013-02-10 18:40:00,
2013-02-10 13:45:00,32.1,26.0,30.28,NNE,16,0.0,3.0,78,0.08,,---,0.18,VWS V14.00,2013-02-10 18:45:00,
2013-02-10 13:50:00,32.2,25.8,30.28,North,357,3.0,3.0,77,0.09,,---,0.19,VWS V14.00,2013-02-10 18:50:00,
2013-02-10 13:55:00,32.4,26.0,30.28,NNW,347,1.0,3.0,77,0.09,,---,0.19,VWS V14.00,2013-02-10 18:55:00,
2013-02-10 14:00:00,32.4,25.7,30.28,NNW,342,1.0,3.0,76,0.09,,---,0.19,VWS V14.00,2013-02-10 19:00:00,
2013-02-10 14:05:00,32.5,24.5,30.28,NNW,329,1.0,1.0,72,0.06,,---,0.20,VWS V14.00,2013-02-10 19:05:00,
2013-02-10 14:10:00,32.8,25.8,30.28,SW,226,0.0,2.0,75,0.06,,---,0.20,VWS V14.00,2013-02-10 19:10:00,
2013-02-10 14:15:00,32.8,25.4,30.28,NNW,346,0.0,2.0,74,0.07,,---,0.21,VWS V14.00,2013-02-10 19:15:00,
2013-02-10 14:21:00,32.7,25.7,30.27,NNW,346,0.0,2.0,75,0.07,,---,0.21,VWS V14.00,2013-02-10 19:21:00,
2013-02-10 14:26:00,32.8,26.1,30.27,NNW,346,0.0,2.0,76,0.07,,---,0.21,VWS V14.00,2013-02-10 19:26:00,
2013-02-10 14:31:00,32.9,25.2,30.27,SSW,206,0.0,2.0,73,0.08,,---,0.22,VWS V14.00,2013-02-10 19:31:00,
2013-02-10 14:36:00,32.8,25.4,30.27,NNW,328,0.0,1.0,74,0.05,,---,0.22,VWS V14.00,2013-02-10 19:36:00,
2013-02-10 14:41:00,32.9,26.2,30.27,WSW,258,0.0,3.0,76,0.05,,---,0.22,VWS V14.00,2013-02-10 19:41:00,
2013-02-10 14:46:00,33.1,26.0,30.28,SSW,210,0.0,3.0,75,0.05,,---,0.22,VWS V14.00,2013-02-10 19:46:00,
2013-02-10 14:51:00,33.1,26.4,30.28,WSW,246,0.0,3.0,76,0.05,,---,0.22,VWS V14.00,2013-02-10 19:51:00,
2013-02-10 14:56:00,33.2,25.8,30.28,WSW,246,2.0,3.0,74,0.06,,---,0.23,VWS V14.00,2013-02-10 19:56:00,
2013-02-10 15:01:00,33.4,26.3,30.28,SSW,195,0.0,3.0,75,0.06,,---,0.23,VWS V14.00,2013-02-10 20:01:00,
2013-02-10 15:06:00,33.4,26.3,30.28,SSW,198,0.0,2.0,75,0.04,,---,0.23,VWS V14.00,2013-02-10 20:06:00,
2013-02-10 15:11:00,33.5,26.8,30.28,West,274,0.0,2.0,76,0.04,,---,0.23,VWS V14.00,2013-02-10 20:11:00,
2013-02-10 15:16:00,33.7,25.6,30.28,NW,325,0.0,2.0,72,0.04,,---,0.23,VWS V14.00,2013-02-10 20:16:00,
2013-02-10 15:21:00,33.8,26.4,30.28,WSW,239,0.0,5.0,74,0.05,,---,0.24,VWS V14.00,2013-02-10 20:21:00,
2013-02-10 15:26:00,33.7,25.6,30.28,West,275,1.0,5.0,72,0.05,,---,0.24,VWS V14.00,2013-02-10 20:26:00,
2013-02-10 15:31:00,33.7,25.3,30.29,SW,217,1.0,5.0,71,0.05,,---,0.24,VWS V14.00,2013-02-10 20:31:00,
2013-02-10 15:36:00,33.5,26.4,30.29,SSE,164,0.0,1.0,75,0.02,,---,0.24,VWS V14.00,2013-02-10 20:36:00,
2013-02-10 15:41:00,33.2,25.5,30.29,South,174,0.0,1.0,73,0.03,,---,0.25,VWS V14.00,2013-02-10 20:41:00,
2013-02-10 15:46:00,33.1,25.7,30.30,South,176,0.0,1.0,74,0.03,,---,0.25,VWS V14.00,2013-02-10 20:46:00,
2013-02-10 15:51:00,33.1,25.1,30.30,South,176,0.0,1.0,72,0.03,,---,0.25,VWS V14.00,2013-02-10 20:51:00,
2013-02-10 15:56:00,32.9,24.5,30.30,NNE,24,1.0,2.0,71,0.03,,---,0.25,VWS V14.00,2013-02-10 20:56:00,
2013-02-10 16:01:00,32.9,24.5,30.30,NNE,27,0.0,2.0,71,0.03,,---,0.25,VWS V14.00,2013-02-10 21:01:00,
2013-02-10 16:06:00,32.9,25.2,30.30,NNE,25,0.0,1.0,73,0.02,,---,0.25,VWS V14.00,2013-02-10 21:06:00,
2013-02-10 16:11:00,32.9,25.5,30.30,NNE,27,0.0,1.0,74,0.02,,---,0.25,VWS V14.00,2013-02-10 21:11:00,
2013-02-10 16:16:00,32.9,26.2,30.29,NNE,30,0.0,2.0,76,0.02,,---,0.25,VWS V14.00,2013-02-10 21:16:00,
2013-02-10 16:21:00,32.8,25.1,30.29,NNE,30,0.0,2.0,73,0.02,,---,0.25,VWS V14.00,2013-02-10 21:21:00,
2013-02-10 16:26:00,32.7,24.7,30.29,NNE,30,0.0,2.0,72,0.02,,---,0.25,VWS V14.00,2013-02-10 21:26:00,
2013-02-10 16:31:00,32.5,24.8,30.28,NE,35,0.0,2.0,73,0.03,,---,0.26,VWS V14.00,2013-02-10 21:31:00,
2013-02-10 16:36:00,32.4,26.0,30.28,NE,35,0.0,0.0,77,0.02,,---,0.26,VWS V14.00,2013-02-10 21:36:00,
2013-02-10 16:41:00,32.2,24.9,30.28,NE,35,0.0,0.0,74,0.02,,---,0.26,VWS V14.00,2013-02-10 21:41:00,
2013-02-10 16:47:00,31.9,24.9,30.29,NE,35,0.0,0.0,75,0.02,,---,0.26,VWS V14.00,2013-02-10 21:47:00,
2013-02-10 16:52:00,31.6,24.9,30.29,NE,35,0.0,0.0,76,0.02,,---,0.26,VWS V14.00,2013-02-10 21:52:00,
2013-02-10 16:57:00,31.3,24.3,30.29,NE,35,0.0,0.0,75,0.02,,---,0.26,VWS V14.00,2013-02-10 21:57:00,
2013-02-10 17:02:00,30.9,23.3,30.28,NE,34,0.0,0.0,73,0.02,,---,0.26,VWS V14.00,2013-02-10 22:02:00,
2013-02-10 17:07:00,30.6,22.7,30.28,NE,35,0.0,0.0,72,0.01,,---,0.26,VWS V14.00,2013-02-10 22:07:00,
2013-02-10 17:12:00,30.3,23.0,30.28,NE,37,0.0,0.0,74,0.01,,---,0.26,VWS V14.00,2013-02-10 22:12:00,
2013-02-10 17:17:00,30.1,21.9,30.29,NE,37,0.0,0.0,71,0.01,,---,0.26,VWS V14.00,2013-02-10 22:17:00,
2013-02-10 17:22:00,29.7,20.8,30.29,NE,37,0.0,0.0,69,0.01,,---,0.26,VWS V14.00,2013-02-10 22:22:00,
2013-02-10 17:27:00,29.1,20.5,30.29,NE,37,0.0,0.0,70,0.01,,---,0.26,VWS V14.00,2013-02-10 22:27:00,
2013-02-10 17:32:00,28.5,20.0,30.30,NE,37,0.0,0.0,70,0.00,,---,0.26,VWS V14.00,2013-02-10 22:32:00,
2013-02-10 17:37:00,27.9,19.7,30.30,NE,37,0.0,0.0,71,0.00,,---,0.26,VWS V14.00,2013-02-10 22:37:00,
2013-02-10 17:42:00,27.5,19.0,30.30,NE,35,0.0,0.0,70,0.00,,---,0.26,VWS V14.00,2013-02-10 22:42:00,
2013-02-10 17:47:00,27.2,19.1,30.30,NE,35,0.0,0.0,71,0.00,,---,0.26,VWS V14.00,2013-02-10 22:47:00,
2013-02-10 17:52:00,26.7,19.2,30.30,ESE,123,0.0,1.0,73,0.00,,---,0.26,VWS V14.00,2013-02-10 22:52:00,
2013-02-10 17:57:00,26.3,19.1,30.30,ESE,123,0.0,1.0,74,0.00,,---,0.26,VWS V14.00,2013-02-10 22:57:00,
2013-02-10 18:02:00,26.0,18.2,30.30,ESE,123,0.0,0.0,72,0.00,,---,0.26,VWS V14.00,2013-02-10 23:02:00,
2013-02-10 18:07:00,25.7,18.3,30.30,ESE,123,0.0,1.0,73,0.00,,---,0.26,VWS V14.00,2013-02-10 23:07:00,
2013-02-10 18:12:00,25.7,18.6,30.30,ESE,123,0.0,1.0,74,0.00,,---,0.26,VWS V14.00,2013-02-10 23:12:00,
2013-02-10 18:17:00,25.8,19.0,30.31,ESE,123,0.0,1.0,75,0.00,,---,0.26,VWS V14.00,2013-02-10 23:17:00,
2013-02-10 18:22:00,26.0,19.2,30.31,ESE,123,0.0,1.0,75,0.00,,---,0.26,VWS V14.00,2013-02-10 23:22:00,
2013-02-10 18:27:00,26.1,19.3,30.31,SE,124,0.0,1.0,75,0.00,,---,0.26,VWS V14.00,2013-02-10 23:27:00,
2013-02-10 18:32:00,26.3,19.5,30.30,ESE,123,0.0,0.0,75,0.00,,---,0.26,VWS V14.00,2013-02-10 23:32:00,
2013-02-10 18:37:00,26.4,19.6,30.30,ESE,123,0.0,1.0,75,0.00,,---,0.26,VWS V14.00,2013-02-10 23:37:00,
2013-02-10 18:42:00,26.6,20.1,30.30,ESE,123,0.0,1.0,76,0.00,,---,0.26,VWS V14.00,2013-02-10 23:42:00,
2013-02-10 18:47:00,26.6,20.1,30.31,ESE,123,0.0,1.0,76,0.00,,---,0.26,VWS V14.00,2013-02-10 23:47:00,
2013-02-10 18:52:00,26.4,19.9,30.31,ESE,123,0.0,1.0,76,0.00,,---,0.26,VWS V14.00,2013-02-10 23:52:00,
2013-02-10 18:57:00,26.3,20.1,30.31,ESE,123,0.0,1.0,77,0.00,,---,0.26,VWS V14.00,2013-02-10 23:57:00,
2013-02-10 19:02:00,26.1,19.9,30.31,SE,124,0.0,0.0,77,0.00,,---,0.26,VWS V14.00,2013-02-11 00:02:00,
2013-02-10 19:07:00,25.8,19.6,30.31,SE,124,0.0,0.0,77,0.00,,---,0.26,VWS V14.00,2013-02-11 00:07:00,
2013-02-10 19:12:00,25.6,19.4,30.31,SE,124,0.0,0.0,77,0.00,,---,0.26,VWS V14.00,2013-02-11 00:12:00,
2013-02-10 19:17:00,25.6,19.7,30.31,SE,124,0.0,0.0,78,0.00,,---,0.26,VWS V14.00,2013-02-11 00:17:00,
2013-02-10 19:22:00,25.4,19.5,30.31,SE,124,0.0,1.0,78,0.00,,---,0.26,VWS V14.00,2013-02-11 00:22:00,
2013-02-10 19:27:00,25.3,19.7,30.31,SE,124,0.0,1.0,79,0.00,,---,0.26,VWS V14.00,2013-02-11 00:27:00,
2013-02-10 19:32:00,25.3,19.7,30.31,SE,124,0.0,0.0,79,0.00,,---,0.26,VWS V14.00,2013-02-11 00:32:00,
2013-02-10 19:37:00,25.1,19.5,30.31,SE,124,0.0,0.0,79,0.00,,---,0.26,VWS V14.00,2013-02-11 00:37:00,
2013-02-10 19:42:00,24.8,19.5,30.31,SE,124,0.0,0.0,80,0.00,,---,0.26,VWS V14.00,2013-02-11 00:42:00,
2013-02-10 19:48:00,24.8,19.8,30.31,SE,124,0.0,1.0,81,0.00,,---,0.26,VWS V14.00,2013-02-11 00:48:00,
2013-02-10 19:52:00,24.8,19.8,30.31,SE,124,0.0,1.0,81,0.00,,---,0.26,VWS V14.00,2013-02-11 00:52:00,
2013-02-10 19:58:00,24.8,19.8,30.31,SE,124,0.0,1.0,81,0.00,,---,0.26,VWS V14.00,2013-02-11 00:58:00,
2013-02-10 20:03:00,25.1,20.1,30.31,SE,124,0.0,0.0,81,0.00,,---,0.26,VWS V14.00,2013-02-11 01:03:00,
2013-02-10 20:08:00,25.0,20.3,30.31,SE,126,0.0,1.0,82,0.00,,---,0.26,VWS V14.00,2013-02-11 01:08:00,
2013-02-10 20:13:00,24.8,20.1,30.31,SE,126,0.0,1.0,82,0.00,,---,0.26,VWS V14.00,2013-02-11 01:13:00,
2013-02-10 20:18:00,24.7,20.3,30.31,SE,126,0.0,1.0,83,0.00,,---,0.26,VWS V14.00,2013-02-11 01:18:00,
2013-02-10 20:23:00,24.8,20.4,30.31,SE,126,0.0,1.0,83,0.00,,---,0.26,VWS V14.00,2013-02-11 01:23:00,
2013-02-10 20:28:00,25.1,20.7,30.31,SE,126,0.0,1.0,83,0.00,,---,0.26,VWS V14.00,2013-02-11 01:28:00,
2013-02-10 20:33:00,25.3,20.9,30.30,SE,126,0.0,0.0,83,0.00,,---,0.26,VWS V14.00,2013-02-11 01:33:00,
2013-02-10 20:38:00,25.3,21.1,30.30,SE,126,0.0,1.0,84,0.00,,---,0.26,VWS V14.00,2013-02-11 01:38:00,
2013-02-10 20:43:00,25.1,21.0,30.30,SE,126,0.0,1.0,84,0.00,,---,0.26,VWS V14.00,2013-02-11 01:43:00,
2013-02-10 20:48:00,25.1,21.0,30.31,SE,126,0.0,1.0,84,0.00,,---,0.26,VWS V14.00,2013-02-11 01:48:00,
2013-02-10 20:53:00,25.1,21.0,30.31,SE,126,0.0,1.0,84,0.00,,---,0.26,VWS V14.00,2013-02-11 01:53:00,
2013-02-10 20:58:00,25.3,21.4,30.31,SE,126,0.0,1.0,85,0.00,,---,0.26,VWS V14.00,2013-02-11 01:58:00,
2013-02-10 21:03:00,25.4,21.5,30.31,SE,126,0.0,0.0,85,0.00,,---,0.26,VWS V14.00,2013-02-11 02:03:00,
2013-02-10 21:08:00,25.4,21.5,30.31,SE,131,0.0,1.0,85,0.00,,---,0.26,VWS V14.00,2013-02-11 02:08:00,
2013-02-10 21:13:00,25.4,21.2,30.31,SE,131,0.0,1.0,84,0.00,,---,0.26,VWS V14.00,2013-02-11 02:13:00,
2013-02-10 21:18:00,25.3,21.1,30.30,SE,131,0.0,1.0,84,0.00,,---,0.26,VWS V14.00,2013-02-11 02:18:00,
2013-02-10 21:23:00,25.1,21.0,30.30,SE,131,0.0,1.0,84,0.00,,---,0.26,VWS V14.00,2013-02-11 02:23:00,
2013-02-10 21:28:00,24.7,20.3,30.30,SE,131,0.0,1.0,83,0.00,,---,0.26,VWS V14.00,2013-02-11 02:28:00,
2013-02-10 21:33:00,24.2,19.8,30.30,SE,131,0.0,1.0,83,0.00,,---,0.26,VWS V14.00,2013-02-11 02:33:00,
2013-02-10 21:38:00,24.1,19.7,30.30,SE,134,0.0,1.0,83,0.00,,---,0.26,VWS V14.00,2013-02-11 02:38:00,
2013-02-10 21:43:00,24.2,19.8,30.30,SE,134,0.0,1.0,83,0.00,,---,0.26,VWS V14.00,2013-02-11 02:43:00,
2013-02-10 21:48:00,24.2,19.8,30.30,SE,144,0.0,1.0,83,0.00,,---,0.26,VWS V14.00,2013-02-11 02:48:00,
2013-02-10 21:53:00,23.9,19.5,30.30,SE,144,0.0,1.0,83,0.00,,---,0.26,VWS V14.00,2013-02-11 02:53:00,
2013-02-10 21:58:00,23.9,19.8,30.30,SSE,147,0.0,1.0,84,0.00,,---,0.26,VWS V14.00,2013-02-11 02:58:00,
2013-02-10 22:03:00,24.1,20.0,30.30,SSE,151,0.0,0.0,84,0.00,,---,0.26,VWS V14.00,2013-02-11 03:03:00,
2013-02-10 22:08:00,24.2,20.1,30.30,SSE,151,0.0,0.0,84,0.00,,---,0.26,VWS V14.00,2013-02-11 03:08:00,
2013-02-10 22:13:00,24.2,19.8,30.30,SSE,154,0.0,1.0,83,0.00,,---,0.26,VWS V14.00,2013-02-11 03:13:00,
2013-02-10 22:18:00,24.2,19.5,30.30,SSE,154,0.0,1.0,82,0.00,,---,0.26,VWS V14.00,2013-02-11 03:18:00,
2013-02-10 22:23:00,24.1,19.1,30.30,SSE,154,0.0,1.0,81,0.00,,---,0.26,VWS V14.00,2013-02-11 03:23:00,
2013-02-10 22:28:00,24.1,18.8,30.30,SSE,154,0.0,1.0,80,0.00,,---,0.26,VWS V14.00,2013-02-11 03:28:00,
2013-02-10 22:33:00,24.1,18.2,30.29,SSE,154,0.0,0.0,78,0.00,,---,0.26,VWS V14.00,2013-02-11 03:33:00,
2013-02-10 22:38:00,23.9,18.4,30.29,SSE,155,0.0,0.0,79,0.00,,---,0.26,VWS V14.00,2013-02-11 03:38:00,
2013-02-10 22:43:00,23.3,18.1,30.29,SSE,155,0.0,0.0,80,0.00,,---,0.26,VWS V14.00,2013-02-11 03:43:00,
2013-02-10 22:48:00,22.7,17.8,30.29,SSE,155,0.0,0.0,81,0.00,,---,0.26,VWS V14.00,2013-02-11 03:48:00,
2013-02-10 22:53:00,22.2,17.3,30.29,SSE,155,0.0,0.0,81,0.00,,---,0.26,VWS V14.00,2013-02-11 03:53:00,
2013-02-10 22:58:00,21.9,17.0,30.29,SSE,155,0.0,0.0,81,0.00,,---,0.26,VWS V14.00,2013-02-11 03:58:00,
2013-02-10 23:03:00,21.8,16.9,30.28,SSE,155,0.0,0.0,81,0.00,,---,0.26,VWS V14.00,2013-02-11 04:03:00,
2013-02-10 23:08:00,21.8,16.9,30.28,SSE,155,0.0,0.0,81,0.00,,---,0.26,VWS V14.00,2013-02-11 04:08:00,
2013-02-10 23:13:00,21.4,16.5,30.28,SSE,155,0.0,0.0,81,0.00,,---,0.26,VWS V14.00,2013-02-11 04:13:00,
2013-02-10 23:19:00,21.4,16.5,30.28,SSE,155,0.0,0.0,81,0.00,,---,0.26,VWS V14.00,2013-02-11 04:19:00,
2013-02-10 23:24:00,21.3,16.4,30.28,SSE,155,0.0,0.0,81,0.00,,---,0.26,VWS V14.00,2013-02-11 04:24:00,
2013-02-10 23:29:00,21.1,15.9,30.28,SSE,155,0.0,0.0,80,0.00,,---,0.26,VWS V14.00,2013-02-11 04:29:00,
2013-02-10 23:34:00,21.1,15.9,30.28,SSE,155,0.0,0.0,80,0.00,,---,0.26,VWS V14.00,2013-02-11 04:34:00,
2013-02-10 23:39:00,21.0,15.5,30.28,SSE,155,0.0,1.0,79,0.00,,---,0.26,VWS V14.00,2013-02-11 04:39:00,
2013-02-10 23:44:00,21.0,15.5,30.28,SSE,155,0.0,1.0,79,0.00,,---,0.26,VWS V14.00,2013-02-11 04:44:00,
2013-02-10 23:49:00,20.8,15.0,30.28,SSE,155,0.0,1.0,78,0.00,,---,0.26,VWS V14.00,2013-02-11 04:49:00,
2013-02-10 23:54:00,20.8,14.7,30.28,SSE,155,0.0,1.0,77,0.00,,---,0.26,VWS V14.00,2013-02-11 04:54:00,
2013-02-10 23:59:00,20.8,14.7,30.28,SSE,155,0.0,1.0,77,0.00,,---,0.26,VWS V14.00,2013-02-11 04:59:00,